M I D A S
Marine Information and Data Acquisition System
Tripno 2031 of the Zeeleeuw from 2011-01-14 07:38:52 to 2011-01-14 15:06:52
Back to CruiseResearch ActivitiesStationsMapUnderway DataData graphs

EquipmentUnitsComment
TimeDGPSUTC
LatitudeDGPSDM.mWGS84
LongitudeDGPSDM.mWGS84
TemperatureSBE03/SBE38deg celciusITS90
ConductivitySBE21S/mITS90
SalinitySBE21 Practical Salinity Units
ChlorophylAChelsea fluorimeterg/lCalibrated in Aceton
Missing or incorrect values are displayed as -999
Sea surface data collected by the RV Zeeleeuw from 2011-01-14 07:43:22 to 2011-01-14 15:16:46
Time Latitude Longitude Temperature Conductivity Salinity ChlorophylA
2011-01-14 07:44:31 51°13.683 2°55.872 6.0231 -999 -999 -999
2011-01-14 07:45:30 51°13.698 2°55.782 5.99 -999 -999 -999
2011-01-14 07:46:29 51°13.703 2°55.761 6.0104 -999 -999 -999
2011-01-14 07:47:30 51°13.705 2°55.742 5.964 -999 -999 -999
2011-01-14 07:48:29 51°13.749 2°55.711 5.9603 -999 -999 -999
2011-01-14 07:49:28 51°13.845 2°55.619 6.0824 -999 -999 -999
2011-01-14 07:50:30 51°13.995 2°55.515 5.9903 -999 -999 -999
2011-01-14 07:51:30 51°14.151 2°55.405 6.0202 -999 -999 -999
2011-01-14 07:52:30 51°14.303 2°55.251 5.9704 -999 -999 -999
2011-01-14 07:53:31 51°14.468 2°55.1 6.0679 -999 -999 -999
2011-01-14 07:54:28 51°14.651 2°54.987 6.2 -999 -999 -999
2011-01-14 07:55:27 51°14.863 2°54.909 6.4044 -999 -999 -999
2011-01-14 07:56:27 51°15.081 2°54.819 6.3821 -999 -999 -999
2011-01-14 07:57:27 51°15.273 2°54.663 6.2119 -999 -999 -999
2011-01-14 07:58:27 51°15.437 2°54.453 5.9962 -999 -999 -999
2011-01-14 07:59:27 51°15.598 2°54.237 5.8994 -999 -999 -999
2011-01-14 08:00:27 51°15.759 2°54.022 5.8492 -999 -999 -999
2011-01-14 08:01:27 51°15.918 2°53.805 5.6562 -999 -999 -999
2011-01-14 08:02:27 51°16.086 2°53.602 5.5966 -999 -999 -999
2011-01-14 08:03:27 51°16.255 2°53.403 5.5332 -999 -999 -999
2011-01-14 08:04:27 51°16.424 2°53.207 5.5096 -999 -999 -999
2011-01-14 08:05:27 51°16.607 2°53.028 5.5791 -999 -999 -999
2011-01-14 08:06:27 51°16.79 2°52.857 5.652 -999 -999 -999
2011-01-14 08:07:27 51°16.976 2°52.686 5.7133 -999 -999 -999
2011-01-14 08:08:27 51°17.188 2°52.598 5.6973 -999 -999 -999
2011-01-14 08:09:27 51°17.41 2°52.554 5.4854 -999 -999 -999
2011-01-14 08:10:27 51°17.633 2°52.532 5.4153 -999 -999 -999
2011-01-14 08:11:27 51°17.855 2°52.495 5.4519 -999 -999 -999
2011-01-14 08:12:27 51°18.079 2°52.465 5.4533 -999 -999 -999
2011-01-14 08:13:27 51°18.302 2°52.435 5.4618 -999 -999 -999
2011-01-14 08:14:27 51°18.526 2°52.404 5.4759 -999 -999 -999
2011-01-14 08:15:27 51°18.749 2°52.374 5.494 -999 -999 -999
2011-01-14 08:16:27 51°18.973 2°52.345 5.4998 -999 -999 -999
2011-01-14 08:17:27 51°19.199 2°52.331 5.4881 -999 -999 -999
2011-01-14 08:18:27 51°19.424 2°52.305 5.4688 -999 -999 -999
2011-01-14 08:19:27 51°19.649 2°52.284 5.456 -999 -999 -999
2011-01-14 08:20:27 51°19.873 2°52.262 5.4 -999 -999 -999
2011-01-14 08:21:27 51°20.096 2°52.237 5.3357 -999 -999 -999
2011-01-14 08:22:27 51°20.32 2°52.219 5.2916 -999 -999 -999
2011-01-14 08:23:27 51°20.543 2°52.197 5.2584 -999 -999 -999
2011-01-14 08:24:27 51°20.764 2°52.185 5.2415 -999 -999 -999
2011-01-14 08:25:27 51°20.989 2°52.207 5.248 -999 -999 -999
2011-01-14 08:26:27 51°21.214 2°52.228 5.263 -999 -999 -999
2011-01-14 08:27:27 51°21.441 2°52.246 5.2523 -999 -999 -999
2011-01-14 08:28:27 51°21.669 2°52.272 5.2671 -999 -999 -999
2011-01-14 08:29:27 51°21.899 2°52.298 5.2865 -999 -999 -999
2011-01-14 08:30:27 51°22.127 2°52.31 5.3033 -999 -999 -999
2011-01-14 08:31:27 51°22.356 2°52.334 5.3257 -999 -999 -999
2011-01-14 08:32:27 51°22.585 2°52.349 5.3102 -999 -999 -999
2011-01-14 08:33:27 51°22.811 2°52.356 5.2661 -999 -999 -999
2011-01-14 08:34:27 51°23.038 2°52.355 5.2198 -999 -999 -999
2011-01-14 08:35:27 51°23.265 2°52.358 5.2641 -999 -999 -999
2011-01-14 08:36:27 51°23.493 2°52.384 5.3114 -999 -999 -999
2011-01-14 08:37:27 51°23.722 2°52.407 5.3408 -999 -999 -999
2011-01-14 08:38:27 51°23.949 2°52.411 5.3717 -999 -999 -999
2011-01-14 08:39:27 51°24.174 2°52.401 5.3925 -999 -999 -999
2011-01-14 08:40:27 51°24.398 2°52.417 5.3715 -999 -999 -999
2011-01-14 08:41:27 51°24.623 2°52.431 5.3519 -999 -999 -999
2011-01-14 08:42:27 51°24.851 2°52.447 5.3239 -999 -999 -999
2011-01-14 08:43:27 51°25.078 2°52.47 5.3309 -999 -999 -999
2011-01-14 08:44:27 51°25.306 2°52.497 5.3246 -999 -999 -999
2011-01-14 08:45:27 51°25.533 2°52.501 5.3291 -999 -999 -999
2011-01-14 08:46:27 51°25.759 2°52.516 5.3219 -999 -999 -999
2011-01-14 08:47:27 51°25.986 2°52.522 5.3235 -999 -999 -999
2011-01-14 08:48:27 51°26.213 2°52.523 5.3233 -999 -999 -999
2011-01-14 08:49:27 51°26.437 2°52.516 5.3126 -999 -999 -999
2011-01-14 08:50:27 51°26.662 2°52.5 5.3245 -999 -999 -999
2011-01-14 08:51:27 51°26.887 2°52.502 5.3687 -999 -999 -999
2011-01-14 08:52:27 51°27.115 2°52.518 5.4091 -999 -999 -999
2011-01-14 08:53:27 51°27.342 2°52.586 5.4292 -999 -999 -999
2011-01-14 08:54:27 51°27.566 2°52.662 5.4475 -999 -999 -999
2011-01-14 08:55:27 51°27.795 2°52.705 5.4352 -999 -999 -999
2011-01-14 08:56:27 51°28.023 2°52.74 5.4245 -999 -999 -999
2011-01-14 08:57:27 51°28.25 2°52.755 5.3729 -999 -999 -999
2011-01-14 08:58:27 51°28.475 2°52.773 5.3362 -999 -999 -999
2011-01-14 08:59:27 51°28.697 2°52.783 5.2935 -999 -999 -999
2011-01-14 09:00:27 51°28.921 2°52.784 5.3012 -999 -999 -999
2011-01-14 09:01:27 51°29.143 2°52.721 5.3083 -999 -999 -999
2011-01-14 09:02:27 51°29.359 2°52.648 5.3097 -999 -999 -999
2011-01-14 09:03:27 51°29.581 2°52.59 5.3279 -999 -999 -999
2011-01-14 09:04:27 51°29.802 2°52.521 5.3582 -999 -999 -999
2011-01-14 09:05:27 51°30.019 2°52.449 5.3817 -999 -999 -999
2011-01-14 09:06:27 51°30.238 2°52.373 5.4139 -999 -999 -999
2011-01-14 09:07:27 51°30.459 2°52.307 5.4472 -999 -999 -999
2011-01-14 09:08:27 51°30.673 2°52.218 5.4372 -999 -999 -999
2011-01-14 09:09:27 51°30.834 2°52.155 5.4126 -999 -999 -999
2011-01-14 09:10:27 51°30.942 2°52.127 5.409 -999 -999 -999
2011-01-14 09:11:27 51°31.022 2°52.114 5.422 -999 -999 -999
2011-01-14 09:12:27 51°31.068 2°52.12 5.4283 -999 -999 -999
2011-01-14 09:13:27 51°31.099 2°52.145 5.4315 -999 -999 -999
2011-01-14 09:14:27 51°31.127 2°52.176 5.4407 -999 -999 -999
2011-01-14 09:15:27 51°31.153 2°52.21 5.4395 -999 -999 -999
2011-01-14 09:16:27 51°31.176 2°52.249 5.4409 -999 -999 -999
2011-01-14 09:17:27 51°31.2 2°52.287 5.442 -999 -999 -999
2011-01-14 09:18:27 51°31.224 2°52.324 5.4419 -999 -999 -999
2011-01-14 09:19:27 51°31.248 2°52.359 5.4427 -999 -999 -999
2011-01-14 09:20:27 51°31.272 2°52.395 5.4445 -999 -999 -999
2011-01-14 09:21:27 51°31.294 2°52.433 5.4481 -999 -999 -999
2011-01-14 09:22:27 51°31.317 2°52.469 5.4415 -999 -999 -999
2011-01-14 09:23:27 51°31.341 2°52.505 5.4494 -999 -999 -999
2011-01-14 09:24:27 51°31.364 2°52.542 5.4454 -999 -999 -999
2011-01-14 09:25:27 51°31.386 2°52.579 5.448 -999 -999 -999
2011-01-14 09:26:27 51°31.409 2°52.615 5.4529 -999 -999 -999
2011-01-14 09:27:27 51°31.433 2°52.651 5.4474 -999 -999 -999
2011-01-14 09:28:27 51°31.459 2°52.683 5.4477 -999 -999 -999
2011-01-14 09:29:27 51°31.484 2°52.715 5.4531 -999 -999 -999
2011-01-14 09:30:27 51°31.511 2°52.748 5.4444 -999 -999 -999
2011-01-14 09:31:27 51°31.537 2°52.782 5.4465 -999 -999 -999
2011-01-14 09:32:27 51°31.562 2°52.818 5.4519 -999 -999 -999
2011-01-14 09:33:27 51°31.586 2°52.855 5.4569 -999 -999 -999
2011-01-14 09:34:27 51°31.611 2°52.887 5.4569 -999 -999 -999
2011-01-14 09:35:27 51°31.638 2°52.919 5.4541 -999 -999 -999
2011-01-14 09:36:27 51°31.665 2°52.949 5.4557 -999 -999 -999
2011-01-14 09:37:27 51°31.693 2°52.976 5.4598 -999 -999 -999
2011-01-14 09:38:27 51°31.718 2°53.005 5.4576 -999 -999 -999
2011-01-14 09:39:27 51°31.742 2°53.038 5.4585 -999 -999 -999
2011-01-14 09:40:27 51°31.767 2°53.076 5.4635 -999 -999 -999
2011-01-14 09:41:27 51°31.79 2°53.112 5.4654 -999 -999 -999
2011-01-14 09:42:27 51°31.813 2°53.148 5.4653 -999 -999 -999
2011-01-14 09:43:27 51°31.838 2°53.183 5.463 -999 -999 -999
2011-01-14 09:44:27 51°31.864 2°53.213 5.4631 -999 -999 -999
2011-01-14 09:45:27 51°31.892 2°53.241 5.4652 -999 -999 -999
2011-01-14 09:46:27 51°31.919 2°53.267 5.4652 -999 -999 -999
2011-01-14 09:47:27 51°31.946 2°53.294 5.4623 -999 -999 -999
2011-01-14 09:48:27 51°31.974 2°53.322 5.4619 -999 -999 -999
2011-01-14 09:49:27 51°32 2°53.351 5.4597 -999 -999 -999
2011-01-14 09:50:27 51°32.025 2°53.383 5.4565 -999 -999 -999
2011-01-14 09:51:27 51°32.049 2°53.414 5.4572 -999 -999 -999
2011-01-14 09:52:27 51°32.074 2°53.446 5.4625 -999 -999 -999
2011-01-14 09:53:27 51°32.098 2°53.477 5.4586 -999 -999 -999
2011-01-14 09:54:27 51°32.133 2°53.49 5.4598 -999 -999 -999
2011-01-14 09:55:27 51°32.166 2°53.454 5.4632 -999 -999 -999
2011-01-14 09:56:27 51°32.165 2°53.41 5.454 -999 -999 -999
2011-01-14 09:57:27 51°32.123 2°53.327 5.4574 -999 -999 -999
2011-01-14 09:58:27 51°32.05 2°53.175 5.4575 -999 -999 -999
2011-01-14 09:59:27 51°31.974 2°53.012 5.4636 -999 -999 -999
2011-01-14 10:00:27 51°31.89 2°52.841 5.4693 -999 -999 -999
2011-01-14 10:01:27 51°31.83 2°52.712 5.4604 -999 -999 -999
2011-01-14 10:02:27 51°31.805 2°52.647 5.4623 -999 -999 -999
2011-01-14 10:03:27 51°31.78 2°52.585 5.4514 -999 -999 -999
2011-01-14 10:04:27 51°31.742 2°52.492 5.4511 -999 -999 -999
2011-01-14 10:05:27 51°31.708 2°52.362 5.4467 -999 -999 -999
2011-01-14 10:06:27 51°31.706 2°52.269 5.4485 -999 -999 -999
2011-01-14 10:07:27 51°31.718 2°52.212 5.4555 -999 -999 -999
2011-01-14 10:08:27 51°31.726 2°52.134 5.4682 -999 -999 -999
2011-01-14 10:09:27 51°31.749 2°52.114 5.4728 -999 -999 -999
2011-01-14 10:10:27 51°31.78 2°52.119 5.4736 -999 -999 -999
2011-01-14 10:11:27 51°31.807 2°52.138 5.4861 -999 -999 -999
2011-01-14 10:12:27 51°31.832 2°52.165 5.4885 -999 -999 -999
2011-01-14 10:13:27 51°31.855 2°52.191 5.4877 -999 -999 -999
2011-01-14 10:14:27 51°31.891 2°52.189 5.493 -999 -999 -999
2011-01-14 10:15:27 51°31.908 2°52.124 5.4891 -999 -999 -999
2011-01-14 10:16:27 51°31.879 2°52.063 5.4888 -999 -999 -999
2011-01-14 10:17:27 51°31.833 2°52.041 5.4894 -999 -999 -999
2011-01-14 10:18:27 51°31.819 2°52.042 5.4842 -999 -999 -999
2011-01-14 10:19:27 51°31.82 2°52.039 5.4828 -999 -999 -999
2011-01-14 10:20:27 51°31.803 2°52.015 5.4884 -999 -999 -999
2011-01-14 10:21:27 51°31.805 2°52.035 5.4878 -999 -999 -999
2011-01-14 10:22:27 51°31.801 2°52.062 5.4868 -999 -999 -999
2011-01-14 10:23:27 51°31.795 2°52.081 5.4806 -999 -999 -999
2011-01-14 10:24:27 51°31.802 2°52.107 5.4813 -999 -999 -999
2011-01-14 10:25:27 51°31.823 2°52.137 5.4772 -999 -999 -999
2011-01-14 10:26:27 51°31.845 2°52.164 5.4779 -999 -999 -999
2011-01-14 10:27:27 51°31.866 2°52.195 5.4797 -999 -999 -999
2011-01-14 10:28:27 51°31.853 2°52.241 5.4729 -999 -999 -999
2011-01-14 10:29:27 51°31.823 2°52.233 5.465 -999 -999 -999
2011-01-14 10:30:27 51°31.802 2°52.178 5.4655 -999 -999 -999
2011-01-14 10:31:27 51°31.779 2°52.145 5.4651 -999 -999 -999
2011-01-14 10:32:27 51°31.8 2°52.099 5.4635 -999 -999 -999
2011-01-14 10:33:27 51°31.824 2°52.113 5.4631 -999 -999 -999
2011-01-14 10:34:30 51°31.827 2°52.149 5.4687 -999 -999 -999
2011-01-14 10:35:30 51°31.838 2°52.177 5.4668 -999 -999 -999
2011-01-14 10:36:28 51°31.857 2°52.203 5.4683 -999 -999 -999
2011-01-14 10:37:27 51°31.877 2°52.229 5.4652 -999 -999 -999
2011-01-14 10:38:27 51°31.897 2°52.254 5.4688 -999 -999 -999
2011-01-14 10:39:27 51°31.917 2°52.281 5.4671 -999 -999 -999
2011-01-14 10:40:27 51°31.955 2°52.276 5.4671 -999 -999 -999
2011-01-14 10:41:27 51°32.051 2°52.156 5.4725 -999 -999 -999
2011-01-14 10:42:27 51°32.196 2°52 5.4873 -999 -999 -999
2011-01-14 10:43:27 51°32.359 2°51.871 5.4996 -999 -999 -999
2011-01-14 10:44:27 51°32.529 2°51.768 5.5155 -999 -999 -999
2011-01-14 10:45:27 51°32.702 2°51.669 5.5364 -999 -999 -999
2011-01-14 10:46:27 51°32.872 2°51.566 5.5558 -999 -999 -999
2011-01-14 10:47:27 51°33.003 2°51.489 5.5678 -999 -999 -999
2011-01-14 10:48:27 51°33.088 2°51.495 5.5671 -999 -999 -999
2011-01-14 10:49:27 51°33.104 2°51.516 5.5636 -999 -999 -999
2011-01-14 10:50:30 51°33.113 2°51.543 5.5639 -999 -999 -999
2011-01-14 10:51:28 51°33.124 2°51.57 5.5618 -999 -999 -999
2011-01-14 10:52:27 51°33.13 2°51.597 5.5647 -999 -999 -999
2011-01-14 10:53:27 51°33.142 2°51.622 5.563 -999 -999 -999
2011-01-14 10:54:27 51°33.15 2°51.647 5.569 -999 -999 -999
2011-01-14 10:55:27 51°33.168 2°51.671 5.5765 -999 -999 -999
2011-01-14 10:56:27 51°33.188 2°51.69 5.583 -999 -999 -999
2011-01-14 10:57:27 51°33.208 2°51.709 5.5712 -999 -999 -999
2011-01-14 10:58:27 51°33.238 2°51.681 5.5724 -999 -999 -999
2011-01-14 10:59:27 51°33.252 2°51.639 5.5638 -999 -999 -999
2011-01-14 11:00:27 51°33.22 2°51.611 5.5623 -999 -999 -999
2011-01-14 11:01:27 51°33.152 2°51.574 5.5634 -999 -999 -999
2011-01-14 11:02:27 51°33.113 2°51.577 5.5629 -999 -999 -999
2011-01-14 11:03:27 51°33.124 2°51.607 5.565 -999 -999 -999
2011-01-14 11:04:27 51°33.135 2°51.637 5.5689 -999 -999 -999
2011-01-14 11:05:27 51°33.153 2°51.659 5.5748 -999 -999 -999
2011-01-14 11:06:27 51°33.173 2°51.683 5.5678 -999 -999 -999
2011-01-14 11:07:27 51°33.191 2°51.707 5.5757 -999 -999 -999
2011-01-14 11:08:27 51°33.204 2°51.737 5.574 -999 -999 -999
2011-01-14 11:09:27 51°33.19 2°51.774 5.5766 -999 -999 -999
2011-01-14 11:10:27 51°33.159 2°51.778 5.567 -999 -999 -999
2011-01-14 11:11:27 51°33.135 2°51.74 5.5767 -999 -999 -999
2011-01-14 11:12:27 51°33.109 2°51.694 5.5809 -999 -999 -999
2011-01-14 11:13:27 51°33.105 2°51.657 5.5749 -999 -999 -999
2011-01-14 11:14:27 51°33.13 2°51.651 5.5759 -999 -999 -999
2011-01-14 11:15:27 51°33.156 2°51.653 5.5867 -999 -999 -999
2011-01-14 11:16:27 51°33.177 2°51.672 5.5918 -999 -999 -999
2011-01-14 11:17:27 51°33.195 2°51.694 5.5899 -999 -999 -999
2011-01-14 11:18:27 51°33.213 2°51.718 5.5856 -999 -999 -999
2011-01-14 11:19:27 51°33.227 2°51.744 5.581 -999 -999 -999
2011-01-14 11:20:27 51°33.246 2°51.768 5.5789 -999 -999 -999
2011-01-14 11:21:27 51°33.28 2°51.742 5.5758 -999 -999 -999
2011-01-14 11:22:27 51°33.299 2°51.687 5.5694 -999 -999 -999
2011-01-14 11:23:27 51°33.285 2°51.671 5.5753 -999 -999 -999
2011-01-14 11:24:27 51°33.273 2°51.698 5.5742 -999 -999 -999
2011-01-14 11:25:27 51°33.25 2°51.712 5.5719 -999 -999 -999
2011-01-14 11:26:27 51°33.217 2°51.711 5.5759 -999 -999 -999
2011-01-14 11:27:27 51°33.177 2°51.672 5.5791 -999 -999 -999
2011-01-14 11:28:27 51°33.164 2°51.674 5.5799 -999 -999 -999
2011-01-14 11:29:27 51°33.161 2°51.693 5.5861 -999 -999 -999
2011-01-14 11:30:27 51°33.148 2°51.696 5.5869 -999 -999 -999
2011-01-14 11:31:27 51°33.142 2°51.662 5.5801 -999 -999 -999
2011-01-14 11:32:27 51°33.146 2°51.63 5.5822 -999 -999 -999
2011-01-14 11:33:27 51°33.145 2°51.625 5.5885 -999 -999 -999
2011-01-14 11:34:27 51°33.127 2°51.652 5.5789 -999 -999 -999
2011-01-14 11:35:27 51°33.111 2°51.675 5.5833 -999 -999 -999
2011-01-14 11:36:27 51°33.089 2°51.674 5.5843 -999 -999 -999
2011-01-14 11:37:27 51°33.093 2°51.666 5.5793 -999 -999 -999
2011-01-14 11:38:27 51°33.116 2°51.659 5.5849 -999 -999 -999
2011-01-14 11:39:27 51°33.142 2°51.657 5.5901 -999 -999 -999
2011-01-14 11:40:27 51°33.165 2°51.666 5.5932 -999 -999 -999
2011-01-14 11:41:27 51°33.185 2°51.682 5.5894 -999 -999 -999
2011-01-14 11:42:27 51°33.203 2°51.702 5.5889 -999 -999 -999
2011-01-14 11:43:27 51°33.229 2°51.716 5.5836 -999 -999 -999
2011-01-14 11:44:27 51°33.289 2°51.69 5.5855 -999 -999 -999
2011-01-14 11:45:27 51°33.381 2°51.688 5.5834 -999 -999 -999
2011-01-14 11:46:27 51°33.488 2°51.744 5.5781 -999 -999 -999
2011-01-14 11:47:27 51°33.592 2°51.829 5.5725 -999 -999 -999
2011-01-14 11:48:27 51°33.705 2°51.949 5.5646 -999 -999 -999
2011-01-14 11:49:27 51°33.831 2°52.079 5.5512 -999 -999 -999
2011-01-14 11:50:27 51°33.96 2°52.213 5.5312 -999 -999 -999
2011-01-14 11:51:27 51°34.075 2°52.329 5.5186 -999 -999 -999
2011-01-14 11:52:27 51°34.143 2°52.367 5.5011 -999 -999 -999
2011-01-14 11:53:27 51°34.195 2°52.419 5.4901 -999 -999 -999
2011-01-14 11:54:27 51°34.212 2°52.483 5.4914 -999 -999 -999
2011-01-14 11:55:27 51°34.218 2°52.52 5.48 -999 -999 -999
2011-01-14 11:56:27 51°34.225 2°52.549 5.469 -999 -999 -999
2011-01-14 11:57:27 51°34.233 2°52.575 5.4716 -999 -999 -999
2011-01-14 11:58:27 51°34.243 2°52.598 5.4756 -999 -999 -999
2011-01-14 11:59:26 51°34.246 2°52.633 5.4756 -999 -999 -999
2011-01-14 12:00:27 51°34.178 2°52.677 5.4779 -999 -999 -999
2011-01-14 12:01:27 51°34.063 2°52.567 5.4658 -999 -999 -999
2011-01-14 12:02:27 51°33.975 2°52.319 5.4832 -999 -999 -999
2011-01-14 12:03:27 51°33.99 2°52.007 5.5159 -999 -999 -999
2011-01-14 12:04:27 51°34.019 2°51.686 5.5294 -999 -999 -999
2011-01-14 12:05:27 51°34.043 2°51.363 5.5401 -999 -999 -999
2011-01-14 12:06:26 51°33.985 2°51.067 5.5578 -999 -999 -999
2011-01-14 12:07:27 51°33.857 2°50.821 5.6017 -999 -999 -999
2011-01-14 12:08:27 51°33.698 2°50.622 5.6395 -999 -999 -999
2011-01-14 12:09:27 51°33.542 2°50.422 5.6183 -999 -999 -999
2011-01-14 12:10:26 51°33.393 2°50.223 5.6235 -999 -999 -999
2011-01-14 12:11:27 51°33.235 2°50.039 5.6174 -999 -999 -999
2011-01-14 12:12:26 51°33.05 2°49.94 5.6661 -999 -999 -999
2011-01-14 12:13:27 51°32.861 2°49.838 5.6495 -999 -999 -999
2011-01-14 12:14:27 51°32.675 2°49.736 5.6561 -999 -999 -999
2011-01-14 12:15:27 51°32.494 2°49.627 5.6836 -999 -999 -999
2011-01-14 12:16:27 51°32.312 2°49.515 5.6952 -999 -999 -999
2011-01-14 12:17:27 51°32.126 2°49.4 5.7073 -999 -999 -999
2011-01-14 12:18:27 51°31.942 2°49.29 5.7293 -999 -999 -999
2011-01-14 12:19:27 51°31.757 2°49.181 5.738 -999 -999 -999
2011-01-14 12:20:27 51°31.573 2°49.073 5.7021 -999 -999 -999
2011-01-14 12:21:27 51°31.389 2°48.963 5.6836 -999 -999 -999
2011-01-14 12:22:27 51°31.201 2°48.847 5.6715 -999 -999 -999
2011-01-14 12:23:27 51°31.016 2°48.739 5.6479 -999 -999 -999
2011-01-14 12:24:28 51°30.832 2°48.631 5.6405 -999 -999 -999
2011-01-14 12:25:27 51°30.648 2°48.516 5.6118 -999 -999 -999
2011-01-14 12:26:26 51°30.463 2°48.401 5.6169 -999 -999 -999
2011-01-14 12:27:27 51°30.277 2°48.293 5.5941 -999 -999 -999
2011-01-14 12:28:27 51°30.089 2°48.177 5.5785 -999 -999 -999
2011-01-14 12:29:27 51°29.901 2°48.057 5.5541 -999 -999 -999
2011-01-14 12:30:27 51°29.711 2°47.942 5.5473 -999 -999 -999
2011-01-14 12:31:26 51°29.525 2°47.826 5.5573 -999 -999 -999
2011-01-14 12:32:27 51°29.333 2°47.707 5.5741 -999 -999 -999
2011-01-14 12:33:27 51°29.142 2°47.586 5.6075 -999 -999 -999
2011-01-14 12:34:27 51°28.952 2°47.479 5.6417 -999 -999 -999
2011-01-14 12:35:27 51°28.763 2°47.365 5.6811 -999 -999 -999
2011-01-14 12:36:27 51°28.572 2°47.24 5.694 -999 -999 -999
2011-01-14 12:37:27 51°28.382 2°47.119 5.6741 -999 -999 -999
2011-01-14 12:38:27 51°28.192 2°46.998 5.6555 -999 -999 -999
2011-01-14 12:39:26 51°28.005 2°46.88 5.639 -999 -999 -999
2011-01-14 12:40:27 51°27.814 2°46.748 5.6321 -999 -999 -999
2011-01-14 12:41:27 51°27.639 2°46.567 5.6191 -999 -999 -999
2011-01-14 12:42:27 51°27.467 2°46.378 5.6238 -999 -999 -999
2011-01-14 12:43:27 51°27.293 2°46.192 5.6389 -999 -999 -999
2011-01-14 12:44:27 51°27.117 2°46.01 5.6413 -999 -999 -999
2011-01-14 12:45:27 51°26.942 2°45.824 5.654 -999 -999 -999
2011-01-14 12:46:27 51°26.768 2°45.644 5.6618 -999 -999 -999
2011-01-14 12:47:27 51°26.591 2°45.46 5.696 -999 -999 -999
2011-01-14 12:48:27 51°26.414 2°45.278 5.7114 -999 -999 -999
2011-01-14 12:49:27 51°26.238 2°45.097 5.7083 -999 -999 -999
2011-01-14 12:50:27 51°26.063 2°44.918 5.7073 -999 -999 -999
2011-01-14 12:51:26 51°25.888 2°44.738 5.698 -999 -999 -999
2011-01-14 12:52:27 51°25.71 2°44.553 5.6781 -999 -999 -999
2011-01-14 12:53:27 51°25.533 2°44.373 5.6556 -999 -999 -999
2011-01-14 12:54:27 51°25.357 2°44.192 5.6434 -999 -999 -999
2011-01-14 12:55:26 51°25.182 2°44.013 5.6386 -999 -999 -999
2011-01-14 12:56:26 51°24.998 2°43.91 5.6469 -999 -999 -999
2011-01-14 12:57:26 51°24.896 2°43.879 5.6382 -999 -999 -999
2011-01-14 12:58:27 51°24.831 2°43.845 5.6411 -999 -999 -999
2011-01-14 12:59:26 51°24.778 2°43.817 5.6425 -999 -999 -999
2011-01-14 13:00:26 51°24.743 2°43.802 5.6425 -999 -999 -999
2011-01-14 13:01:27 51°24.714 2°43.79 5.6492 -999 -999 -999
2011-01-14 13:02:27 51°24.696 2°43.749 5.6455 -999 -999 -999
2011-01-14 13:03:27 51°24.697 2°43.724 5.646 -999 -999 -999
2011-01-14 13:04:26 51°24.684 2°43.713 5.6531 -999 -999 -999
2011-01-14 13:05:27 51°24.671 2°43.727 5.6543 -999 -999 -999
2011-01-14 13:06:27 51°24.678 2°43.74 5.6518 -999 -999 -999
2011-01-14 13:07:27 51°24.686 2°43.751 5.651 -999 -999 -999
2011-01-14 13:08:26 51°24.693 2°43.764 5.6502 -999 -999 -999
2011-01-14 13:09:27 51°24.704 2°43.768 5.6605 -999 -999 -999
2011-01-14 13:10:27 51°24.72 2°43.742 5.6559 -999 -999 -999
2011-01-14 13:11:27 51°24.732 2°43.704 5.6546 -999 -999 -999
2011-01-14 13:12:28 51°24.737 2°43.662 5.645 -999 -999 -999
2011-01-14 13:13:27 51°24.731 2°43.71 5.657 -999 -999 -999
2011-01-14 13:14:27 51°24.683 2°43.742 5.6555 -999 -999 -999
2011-01-14 13:15:27 51°24.645 2°43.681 5.6515 -999 -999 -999
2011-01-14 13:16:27 51°24.659 2°43.64 5.6527 -999 -999 -999
2011-01-14 13:17:30 51°24.662 2°43.647 5.6532 -999 -999 -999
2011-01-14 13:18:29 51°24.666 2°43.657 5.6534 -999 -999 -999
2011-01-14 13:19:27 51°24.666 2°43.671 5.6597 -999 -999 -999
2011-01-14 13:20:26 51°24.667 2°43.683 5.6622 -999 -999 -999
2011-01-14 13:21:26 51°24.671 2°43.695 5.6578 -999 -999 -999
2011-01-14 13:22:27 51°24.676 2°43.706 5.6642 -999 -999 -999
2011-01-14 13:23:26 51°24.682 2°43.716 5.6601 -999 -999 -999
2011-01-14 13:24:26 51°24.689 2°43.725 5.6606 -999 -999 -999
2011-01-14 13:25:26 51°24.695 2°43.734 5.6598 -999 -999 -999
2011-01-14 13:26:26 51°24.697 2°43.749 5.6605 -999 -999 -999
2011-01-14 13:27:30 51°24.679 2°43.77 5.6584 -999 -999 -999
2011-01-14 13:28:29 51°24.656 2°43.773 5.657 -999 -999 -999
2011-01-14 13:29:28 51°24.652 2°43.779 5.6559 -999 -999 -999
2011-01-14 13:30:27 51°24.698 2°43.749 5.6555 -999 -999 -999
2011-01-14 13:31:27 51°24.71 2°43.669 5.6524 -999 -999 -999
2011-01-14 13:32:27 51°24.7 2°43.619 5.6517 -999 -999 -999
2011-01-14 13:33:26 51°24.689 2°43.608 5.6485 -999 -999 -999
2011-01-14 13:34:27 51°24.692 2°43.618 5.6518 -999 -999 -999
2011-01-14 13:35:27 51°24.683 2°43.641 5.66 -999 -999 -999
2011-01-14 13:36:27 51°24.679 2°43.659 5.654 -999 -999 -999
2011-01-14 13:37:27 51°24.67 2°43.681 5.6609 -999 -999 -999
2011-01-14 13:38:27 51°24.668 2°43.694 5.6557 -999 -999 -999
2011-01-14 13:39:26 51°24.668 2°43.71 5.6577 -999 -999 -999
2011-01-14 13:40:27 51°24.668 2°43.723 5.664 -999 -999 -999
2011-01-14 13:41:27 51°24.671 2°43.734 5.6603 -999 -999 -999
2011-01-14 13:42:27 51°24.674 2°43.745 5.6579 -999 -999 -999
2011-01-14 13:43:27 51°24.676 2°43.757 5.6577 -999 -999 -999
2011-01-14 13:44:26 51°24.678 2°43.769 5.6595 -999 -999 -999
2011-01-14 13:45:27 51°24.678 2°43.784 5.6643 -999 -999 -999
2011-01-14 13:46:26 51°24.675 2°43.869 5.6567 -999 -999 -999
2011-01-14 13:47:26 51°24.746 2°43.859 5.6593 -999 -999 -999
2011-01-14 13:48:27 51°24.752 2°43.755 5.6559 -999 -999 -999
2011-01-14 13:49:26 51°24.717 2°43.717 5.6541 -999 -999 -999
2011-01-14 13:50:27 51°24.675 2°43.709 5.6535 -999 -999 -999
2011-01-14 13:51:27 51°24.676 2°43.721 5.6493 -999 -999 -999
2011-01-14 13:52:27 51°24.685 2°43.731 5.6541 -999 -999 -999
2011-01-14 13:53:27 51°24.691 2°43.739 5.6546 -999 -999 -999
2011-01-14 13:54:27 51°24.697 2°43.748 5.6688 -999 -999 -999
2011-01-14 13:55:26 51°24.7 2°43.76 5.6622 -999 -999 -999
2011-01-14 13:56:27 51°24.702 2°43.774 5.6737 -999 -999 -999
2011-01-14 13:57:26 51°24.702 2°43.787 5.6616 -999 -999 -999
2011-01-14 13:58:26 51°24.703 2°43.802 5.6683 -999 -999 -999
2011-01-14 13:59:27 51°24.705 2°43.818 5.6626 -999 -999 -999
2011-01-14 14:00:26 51°24.707 2°43.833 5.6651 -999 -999 -999
2011-01-14 14:01:26 51°24.708 2°43.85 5.664 -999 -999 -999
2011-01-14 14:02:26 51°24.71 2°43.865 5.659 -999 -999 -999
2011-01-14 14:03:26 51°24.689 2°43.906 5.6638 -999 -999 -999
2011-01-14 14:04:27 51°24.621 2°44.015 5.6649 -999 -999 -999
2011-01-14 14:05:27 51°24.581 2°44.225 5.6785 -999 -999 -999
2011-01-14 14:06:27 51°24.551 2°44.457 5.6911 -999 -999 -999
2011-01-14 14:07:27 51°24.515 2°44.66 5.7073 -999 -999 -999
2011-01-14 14:08:27 51°24.461 2°44.814 5.7016 -999 -999 -999
2011-01-14 14:09:27 51°24.414 2°44.941 5.7203 -999 -999 -999
2011-01-14 14:10:27 51°24.372 2°45.07 5.7295 -999 -999 -999
2011-01-14 14:11:27 51°24.313 2°45.258 5.7368 -999 -999 -999
2011-01-14 14:12:27 51°24.23 2°45.518 6.3562 -999 -999 -999
2011-01-14 14:13:27 51°24.093 2°45.772 6.482 -999 -999 -999
2011-01-14 14:14:27 51°23.917 2°45.964 6.6446 -999 -999 -999
2011-01-14 14:15:27 51°23.739 2°46.152 6.8038 -999 -999 -999
2011-01-14 14:16:27 51°23.556 2°46.334 6.9622 -999 -999 -999
2011-01-14 14:17:26 51°23.386 2°46.529 7.1316 -999 -999 -999
2011-01-14 14:18:26 51°23.205 2°46.714 7.2763 -999 -999 -999
2011-01-14 14:19:26 51°23.021 2°46.889 7.4416 -999 -999 -999
2011-01-14 14:20:26 51°22.83 2°47.048 7.5623 -999 -999 -999
2011-01-14 14:21:26 51°22.637 2°47.205 7.6913 -999 -999 -999
2011-01-14 14:22:26 51°22.439 2°47.35 7.8187 -999 -999 -999
2011-01-14 14:23:26 51°22.224 2°47.397 7.9609 -999 -999 -999
2011-01-14 14:24:27 51°22.003 2°47.375 8.079 -999 -999 -999
2011-01-14 14:25:26 51°21.791 2°47.376 8.2043 -999 -999 -999
2011-01-14 14:26:26 51°21.575 2°47.418 8.2938 -999 -999 -999
2011-01-14 14:27:26 51°21.369 2°47.515 8.4327 -999 -999 -999
2011-01-14 14:28:26 51°21.18 2°47.674 8.5246 -999 -999 -999
2011-01-14 14:29:26 51°21.004 2°47.867 8.6822 -999 -999 -999
2011-01-14 14:30:26 51°20.825 2°48.055 8.705 -999 -999 -999
2011-01-14 14:31:26 51°20.643 2°48.241 8.8334 -999 -999 -999
2011-01-14 14:32:26 51°20.46 2°48.421 8.9378 -999 -999 -999
2011-01-14 14:33:26 51°20.276 2°48.606 9.0743 -999 -999 -999
2011-01-14 14:34:26 51°20.089 2°48.779 9.1578 -999 -999 -999
2011-01-14 14:35:26 51°19.902 2°48.951 9.2482 -999 -999 -999
2011-01-14 14:36:26 51°19.721 2°49.132 9.3445 -999 -999 -999
2011-01-14 14:37:26 51°19.539 2°49.314 9.4095 -999 -999 -999
2011-01-14 14:38:26 51°19.356 2°49.491 9.5685 -999 -999 -999
2011-01-14 14:39:26 51°19.171 2°49.668 9.6416 -999 -999 -999
2011-01-14 14:40:26 51°18.993 2°49.857 9.715 -999 -999 -999
2011-01-14 14:41:26 51°18.812 2°50.044 9.7793 -999 -999 -999
2011-01-14 14:42:26 51°18.635 2°50.238 9.8645 -999 -999 -999
2011-01-14 14:43:26 51°18.468 2°50.454 9.9094 -999 -999 -999
2011-01-14 14:44:26 51°18.319 2°50.7 10.0223 -999 -999 -999
2011-01-14 14:45:26 51°18.179 2°50.959 10.109 -999 -999 -999
2011-01-14 14:46:26 51°18.027 2°51.205 10.1777 -999 -999 -999
2011-01-14 14:47:26 51°17.885 2°51.458 10.2274 -999 -999 -999
2011-01-14 14:48:26 51°17.733 2°51.705 10.336 -999 -999 -999
2011-01-14 14:49:26 51°17.577 2°51.942 10.3821 -999 -999 -999
2011-01-14 14:50:26 51°17.394 2°52.133 10.4386 -999 -999 -999
2011-01-14 14:51:27 51°17.202 2°52.31 10.488 -999 -999 -999
2011-01-14 14:52:26 51°17.019 2°52.487 10.6462 -999 -999 -999
2011-01-14 14:53:26 51°16.826 2°52.643 10.6727 -999 -999 -999
2011-01-14 14:54:27 51°16.627 2°52.798 10.7298 -999 -999 -999
2011-01-14 14:55:26 51°16.437 2°52.957 10.769 -999 -999 -999
2011-01-14 14:56:26 51°16.246 2°53.117 10.8595 -999 -999 -999
2011-01-14 14:57:26 51°16.054 2°53.273 10.9283 -999 -999 -999
2011-01-14 14:58:26 51°15.863 2°53.432 10.9733 -999 -999 -999
2011-01-14 14:59:26 51°15.684 2°53.623 11.0443 -999 -999 -999
2011-01-14 15:00:26 51°15.524 2°53.853 11.0986 -999 -999 -999
2011-01-14 15:01:26 51°15.357 2°54.07 11.1505 -999 -999 -999
2011-01-14 15:02:26 51°15.178 2°54.265 11.2324 -999 -999 -999
2011-01-14 15:03:26 51°15.009 2°54.468 11.268 -999 -999 -999
2011-01-14 15:04:26 51°14.836 2°54.669 11.3281 -999 -999 -999
2011-01-14 15:05:26 51°14.666 2°54.869 11.3806 -999 -999 -999
2011-01-14 15:06:26 51°14.49 2°55.046 11.4327 -999 -999 -999
2011-01-14 15:07:26 51°14.329 2°55.219 11.4865 -999 -999 -999
2011-01-14 15:08:26 51°14.212 2°55.334 11.5199 -999 -999 -999
2011-01-14 15:09:26 51°14.106 2°55.424 11.5601 -999 -999 -999
2011-01-14 15:10:26 51°13.987 2°55.519 11.5792 -999 -999 -999
2011-01-14 15:11:27 51°13.876 2°55.604 11.6534 -999 -999 -999
2011-01-14 15:12:27 51°13.781 2°55.686 11.7328 -999 -999 -999
2011-01-14 15:13:27 51°13.73 2°55.775 11.7748 -999 -999 -999
2011-01-14 15:14:27 51°13.694 2°55.856 11.7967 -999 -999 -999
2011-01-14 15:15:26 51°13.666 2°55.939 11.8435 -999 -999 -999
2011-01-14 15:16:26 51°13.662 2°55.957 11.9666 -999 -999 -999